Wind_Speed
13 11 10 9 8 8 9 9 9 9 10 11 12 13 13 12 10 5 2 2 1 11 7 8 1 3 1 2 1 1 2 4 2 4 5 6 5 4 5 10 5 4 6 16 25
12 10 9 8 7 8 9 10 10 8 9 11 12 12 13 13 6 4 1 1 2 8 7 2 2 4 3 2 1 1 3 1 1 2 6 6 6 9 5 12 6 14 18 26 25
12 9 8 6 7 8 9 10 11 9 9 11 11 12 13 8 2 1 2 4 4 8 4 3 2 2 3 0 2 1 3 3 1 3 7 7 7 5 11 8 8 15 19 22 24
11 9 8 6 7 8 10 11 11 9 9 10 11 11 10 2 4 1 3 8 10 7 4 2 3 5 6 6 2 3 2 3 4 4 6 7 6 4 10 2 12 19 24 24 20
11 9 8 7 7 8 10 11 10 9 9 9 9 12 3 1 1 4 10 11 13 9 3 3 6 5 8 7 5 2 2 4 6 7 7 5 4 3 8 6 16 20 21 20 19
10 9 8 8 8 9 10 10 9 10 9 7 7 8 2 3 4 2 9 15 8 5 2 2 3 3 5 3 4 7 3 2 5 4 4 3 3 5 2 15 17 21 20 18 19
10 10 9 9 10 10 9 9 9 9 6 5 5 4 1 2 2 6 9 7 6 6 2 5 3 4 6 6 4 4 5 3 4 5 1 1 2 2 14 15 17 18 17 17 18
11 11 11 11 11 9 9 9 9 5 2 2 3 1 3 1 2 5 7 3 6 9 8 8 2 3 3 6 2 5 3 5 4 5 3 2 1 4 18 17 15 15 15 16 17
12 12 12 11 9 8 10 8 2 1 1 1 1 1 1 2 3 5 10 2 4 5 6 2 1 2 1 5 3 7 5 6 4 4 3 3 3 4 15 15 15 16 16 17 16
13 13 11 9 9 11 8 1 2 1 1 1 1 2 1 2 1 2 7 4 1 1 4 2 1 2 2 6 4 5 4 4 4 2 4 3 11 3 13 14 16 16 16 15 16
13 11 9 9 10 10 2 2 2 2 1 2 1 2 3 5 2 3 4 6 1 4 2 4 3 2 4 3 3 3 2 3 2 2 3 6 13 9 13 14 15 17 17 18 20
13 11 10 9 9 8 4 3 5 2 2 3 5 6 7 3 2 2 7 6 3 3 2 1 5 2 5 2 2 3 2 0 3 3 3 5 13 8 13 20 20 19 19 20 19
12 10 8 9 8 2 2 6 2 1 1 2 3 3 2 6 2 6 6 3 3 4 2 3 1 3 3 1 1 2 4 4 3 4 0 7 6 4 2 11 16 19 18 20 20
12 8 6 7 3 1 2 1 12 11 1 3 4 3 4 3 1 1 2 2 2 5 4 4 0 3 3 3 2 3 3 1 4 4 6 3 6 2 4 6 11 15 18 19 21
11 8 5 2 1 2 2 12 7 3 4 6 4 2 2 4 3 2 0 2 5 4 4 1 3 3 4 1 3 3 5 4 2 2 3 1 3 2 4 3 5 10 18 20 22
10 7 4 3 3 3 7 4 3 2 3 5 5 6 6 2 2 2 2 5 3 3 1 5 1 3 2 3 1 3 0 3 2 0 3 3 4 1 5 12 14 13 12 11 20
10 6 5 4 1 1 5 3 1 3 2 6 5 6 7 6 4 3 8 7 4 5 6 1 3 1 2 2 2 1 2 3 1 2 0 0 2 3 2 9 12 18 17 13 13
9 6 7 9 4 1 1 2 5 1 5 2 4 8 8 6 2 3 8 8 2 2 3 4 4 2 3 1 2 3 3 3 3 4 5 1 4 4 2 9 10 9 11 4 8
7 3 3 2 11 6 2 3 3 4 1 6 5 9 4 4 2 3 8 10 6 11 3 4 3 1 4 2 2 4 2 2 4 0 3 3 4 7 5 12 14 12 10 9 5
3 1 1 3 8 5 2 4 3 3 2 2 6 5 9 7 6 6 8 5 5 11 3 4 5 3 4 0 13 2 7 1 2 1 4 1 3 5 17 15 15 14 11 6 2
0 2 7 8 3 2 4 5 5 5 5 6 5 5 5 7 7 6 8 3 3 7 3 5 1 3 3 4 3 4 3 5 3 2 3 4 1 2 9 10 12 12 9 6 3
0 2 2 2 2 1 3 4 2 4 2 4 3 2 6 7 6 7 8 1 5 10 8 3 2 3 4 2 2 1 3 1 2 2 1 2 3 2 7 8 9 8 6 4 5
1 2 3 3 4 3 2 3 3 3 2 2 5 2 2 5 4 5 4 2 6 7 9 9 2 5 5 4 3 1 2 4 4 0 5 3 2 3 6 7 7 9 9 7 6
1 3 1 2 1 2 2 2 3 2 4 4 1 3 4 3 1 5 5 2 3 3 5 5 3 5 8 4 4 4 5 3 2 3 2 5 6 5 9 10 12 10 9 8 6
1 1 1 5 5 3 1 1 2 3 2 2 2 3 4 4 3 4 2 5 4 3 3 1 4 2 3 3 2 6 10 10 6 4 3 2 5 11 7 13 14 13 9 9 6
1 1 1 2 2 6 3 4 5 4 4 1 2 4 3 5 3 7 6 3 3 3 3 1 4 2 3 2 1 4 5 6 3 4 4 4 7 1 11 10 10 12 10 8 8
2 1 2 1 3 4 3 4 4 2 6 4 1 3 3 3 4 6 5 7 5 3 3 2 7 6 6 0 2 6 12 11 4 5 4 8 6 8 11 10 11 13 7 7 8
Wind_Direction
353 352 351 350 349 354 351 352 354 341 333 337 340 344 336 335 324 320 287 293 156 157 162 154 145 328 73 84 47 147 62 47 74 149 136 154 131 102 99 132 98 17 134 138 150
350 352 353 352 349 347 349 345 347 344 331 335 335 339 340 335 326 270 243 188 146 153 136 157 20 14 79 41 96 64 77 48 285 116 139 145 140 137 132 147 96 80 107 131 147
349 352 348 351 349 344 345 343 340 341 334 331 331 337 338 335 287 21 218 169 151 155 108 89 50 42 89 76 30 41 60 167 217 128 135 143 131 142 146 186 176 149 145 148 156
346 350 345 349 346 344 340 339 333 335 334 327 328 335 334 342 163 331 154 164 162 168 112 87 359 18 15 17 37 333 290 254 134 151 131 154 141 154 168 149 168 156 157 156 164
344 345 347 342 340 337 334 330 326 328 328 327 332 338 4 204 315 314 148 164 164 155 83 17 15 4 1 340 320 301 87 121 140 150 121 140 149 122 190 125 148 150 160 165 173
343 338 338 337 333 329 327 325 321 321 322 325 338 342 347 155 323 189 161 163 176 177 150 200 340 353 301 297 317 320 329 90 149 175 147 172 126 168 100 135 147 157 170 172 179
335 336 335 332 324 322 323 319 316 314 314 327 346 357 300 30 323 147 157 176 199 192 257 228 255 322 336 309 332 300 350 91 88 154 89 176 176 161 150 153 158 171 174 177 184
334 332 331 325 319 321 323 315 312 302 310 331 352 6 251 158 146 181 185 223 215 217 237 284 291 301 259 313 329 2 26 32 26 162 54 228 324 129 161 159 167 178 180 183 188
332 328 325 322 322 328 326 315 309 294 4 0 32 350 192 213 216 244 221 224 168 222 257 296 166 1 345 344 24 31 13 7 16 200 99 244 322 78 172 168 169 184 194 189 190
331 325 325 325 329 332 341 19 135 92 85 58 346 250 187 162 177 218 199 207 328 133 148 149 87 1 4 20 20 335 350 340 353 23 212 228 262 220 188 183 180 190 197 200 203
334 333 328 329 333 336 353 130 242 140 7 234 320 297 285 314 238 205 172 152 123 61 124 31 309 270 319 322 281 293 241 280 303 43 220 247 273 250 200 198 197 197 197 198 207
333 329 326 328 332 336 84 110 92 23 295 236 253 281 261 262 145 123 157 180 165 166 121 203 271 248 279 242 278 165 207 36 291 58 246 326 293 299 208 214 212 202 205 203 205
330 324 324 327 324 74 87 135 341 144 248 282 219 237 246 175 175 167 178 136 125 127 102 218 148 251 237 283 146 186 37 2 335 351 165 321 263 269 203 228 221 226 217 205 204
327 321 319 331 121 357 162 220 309 176 68 182 212 215 159 207 177 169 188 126 92 183 163 252 236 223 294 280 290 21 46 351 324 299 317 327 306 319 325 261 232 233 228 215 211
324 315 308 287 272 183 147 330 129 179 170 148 159 114 139 190 121 132 73 87 172 147 197 160 183 213 276 253 217 20 35 36 360 268 276 67 279 353 338 318 289 248 244 224 215
322 306 293 276 228 192 330 120 148 245 195 167 140 163 154 165 105 98 121 66 67 123 320 263 349 245 280 46 63 114 229 71 85 299 211 40 334 42 18 328 315 312 297 263 217
317 291 261 220 181 194 339 154 195 225 141 161 168 172 170 166 163 151 175 179 177 167 218 260 228 265 227 226 99 142 298 335 51 9 61 79 279 285 214 340 303 302 300 269 219
315 276 254 230 209 36 120 132 220 183 191 114 128 136 181 153 166 127 147 188 176 138 131 194 145 201 143 255 112 68 358 30 8 333 327 144 347 342 125 338 337 338 337 291 217
316 265 245 259 224 229 150 200 242 199 160 155 122 161 160 163 158 163 182 195 207 193 213 167 101 119 55 95 295 137 92 58 107 171 265 352 304 278 353 1 7 14 30 37 127
309 285 337 303 160 146 146 251 250 231 317 190 169 194 175 167 171 189 178 179 210 196 212 171 123 27 129 248 53 40 130 154 51 281 316 356 280 308 336 337 350 15 15 23 117
333 168 352 141 125 109 214 240 265 249 229 195 195 146 177 169 187 184 184 164 201 169 180 161 282 127 193 41 99 135 132 69 110 323 287 294 312 239 301 323 334 352 3 3 12
117 171 52 80 147 11 202 213 286 277 185 251 202 131 155 159 165 207 201 253 174 154 173 173 111 96 102 348 290 337 100 114 336 168 92 329 276 4 305 314 312 319 328 355 49
104 86 161 354 189 198 242 262 253 267 257 230 205 217 131 143 142 192 183 100 156 170 155 173 169 130 134 163 170 175 111 103 103 105 195 234 243 355 326 315 322 320 345 357 22
166 133 107 61 2 177 168 244 266 258 264 273 214 146 128 116 64 155 146 111 138 127 79 127 130 208 203 168 134 174 158 138 195 239 142 259 303 313 342 335 323 315 330 345 9
14 163 14 180 214 197 254 314 277 304 249 273 180 198 156 130 124 133 159 138 85 137 76 236 126 133 83 118 174 172 174 178 183 153 247 360 274 300 333 328 311 304 300 320 342
342 280 103 111 130 154 178 217 221 231 241 205 234 124 169 155 171 177 155 181 151 114 92 33 130 133 136 104 70 217 221 224 203 168 242 249 286 302 314 319 324 315 288 312 333
11 314 276 98 144 175 203 217 242 219 225 242 228 146 160 155 125 96 80 86 98 117 107 84 143 168 183 144 176 233 225 213 207 209 235 265 303 339 320 342 347 340 332 341 348
Height
806 804 802 801 799 798 797 797 797 794 791 790 789 788 784 783 781 780 779 779 778 780 783 784 785 784 783 783 783 783 796 805 803 806 803 791 795 791 790 797 798 802 803 809 822
805 803 802 801 799 798 797 796 796 795 791 790 788 787 786 782 780 779 779 778 778 780 783 784 783 782 782 784 783 787 798 800 788 789 795 792 790 793 797 799 807 810 812 816 823
805 803 802 801 800 798 797 796 795 795 792 789 788 786 785 783 781 777 778 779 779 781 782 783 782 781 784 784 785 786 794 788 785 784 785 791 792 789 798 806 800 808 814 818 822
805 803 802 801 800 798 796 794 793 793 792 789 787 787 784 783 798 778 778 780 782 783 783 784 781 781 785 788 784 792 783 783 783 782 785 790 787 793 793 793 791 801 806 814 820
805 803 802 801 799 798 796 793 792 791 791 789 787 786 785 784 781 778 779 781 782 784 784 783 783 786 792 788 783 788 784 781 781 782 782 784 790 792 793 790 792 801 809 812 816
804 803 801 800 798 797 795 793 791 790 789 788 787 786 786 788 780 779 780 782 784 785 786 786 785 784 789 789 790 780 781 782 782 782 781 788 790 790 796 793 798 801 807 810 814
804 802 801 799 798 796 794 793 791 789 788 788 787 786 786 782 779 780 782 783 784 785 785 785 785 786 785 787 780 779 786 783 784 785 787 784 797 794 793 795 800 801 805 810 814
803 801 799 798 796 794 793 791 790 789 788 788 787 787 784 781 781 781 781 783 784 786 786 785 786 786 787 781 783 790 787 799 789 787 787 788 802 792 792 794 802 804 805 809 813
802 800 798 796 795 793 792 790 789 789 788 788 788 787 783 781 781 780 781 782 782 784 785 786 786 789 785 794 797 800 812 809 797 787 791 794 800 792 791 793 801 803 803 804 811
801 799 797 795 794 792 790 789 789 789 789 789 789 791 780 780 778 779 779 781 782 783 786 787 791 794 797 798 827 820 815 806 806 793 794 800 797 791 790 793 797 801 801 806 808
798 797 795 794 793 791 789 790 792 791 790 786 786 785 780 780 778 778 779 781 782 784 797 796 803 813 807 805 805 810 817 816 799 792 796 796 792 787 785 790 794 795 798 802 803
797 795 794 792 791 790 789 790 791 794 791 785 785 784 781 780 781 778 780 784 787 799 798 803 813 802 801 803 807 812 813 810 799 794 799 797 791 780 781 780 780 785 791 796 799
796 794 792 791 790 790 790 791 790 791 793 786 783 781 778 779 779 779 778 782 791 802 804 810 804 801 802 803 807 808 805 809 812 801 799 804 797 788 778 777 777 776 779 787 790
794 793 792 790 793 790 791 791 788 789 798 792 785 776 777 776 783 777 777 780 792 801 805 805 799 802 802 803 800 806 800 803 806 809 821 808 819 795 790 781 780 776 776 779 782
792 791 790 791 790 790 791 788 787 790 820 787 782 774 775 779 779 781 778 778 795 800 803 806 803 804 804 797 794 802 800 807 810 813 814 811 815 792 790 780 773 771 766 768 772
790 789 788 788 788 788 788 787 789 805 816 791 778 782 784 782 783 781 781 780 788 798 802 800 796 797 793 794 796 799 803 812 818 816 827 823 820 802 793 789 775 764 762 760 761
788 787 787 787 786 786 786 788 807 814 783 792 786 782 784 789 788 786 791 796 803 819 816 804 800 793 792 798 797 799 806 828 833 830 832 829 827 797 787 784 781 772 761 755 753
785 784 783 784 784 785 786 794 820 789 786 777 781 784 789 787 791 793 797 803 802 803 815 814 819 798 793 796 801 811 806 826 856 846 831 829 821 793 783 777 771 764 754 751 750
783 782 782 782 782 785 787 808 793 786 774 778 781 788 793 789 789 792 795 797 792 794 808 812 812 794 794 792 797 813 815 816 834 850 841 828 804 782 776 773 768 764 760 758 754
782 781 781 781 781 785 791 806 790 779 773 775 783 782 793 792 792 794 798 787 789 788 785 797 813 800 797 792 798 799 812 820 825 846 848 826 828 811 791 784 775 769 767 764 762
782 780 782 781 783 784 796 795 786 772 772 774 777 784 783 788 785 792 792 785 783 793 789 793 798 809 799 805 808 810 812 828 827 836 837 838 819 790 793 786 782 772 772 771 768
782 782 783 783 788 802 793 789 783 772 767 768 767 770 775 784 790 790 787 787 778 781 794 793 796 814 816 806 807 807 812 810 823 839 845 845 819 789 788 782 779 776 775 775 774
781 783 784 783 790 791 790 785 779 772 768 766 766 763 766 778 789 788 788 780 779 780 787 789 806 825 823 812 804 809 812 818 819 822 834 832 816 781 779 779 775 777 774 774 776
781 783 784 785 790 784 785 783 780 770 770 765 763 761 769 779 782 787 783 780 778 780 788 782 801 800 814 808 804 816 811 814 811 822 827 820 807 787 784 784 778 774 773 774 777
781 779 780 785 783 783 782 785 783 780 769 766 764 763 765 779 782 785 783 780 779 785 785 782 800 807 809 806 807 803 805 808 808 810 819 813 817 796 793 791 784 776 774 774 776
780 780 782 782 782 783 790 782 781 775 774 768 767 763 765 769 767 781 777 778 777 783 787 788 810 807 815 811 811 811 806 805 803 810 809 807 804 788 788 786 783 779 775 776 777
784 784 781 787 781 781 779 776 775 771 762 760 763 764 769 766 763 765 768 770 772 778 790 793 803 810 821 819 814 824 803 804 802 800 797 807 793 793 790 790 789 783 779 780 779